Wind_Speed
34 34 32 32 32 33 35 37 34 33 32 27 27 23 23 23 15 13 19 20 20 18 19 22 22 22 22 24 29 25 21 20
35 36 35 36 35 35 35 36 34 36 35 34 31 29 29 26 25 19 20 19 21 23 24 23 20 20 22 24 26 30 26 22
36 37 37 37 38 38 38 37 37 35 37 36 34 33 32 31 28 26 23 22 22 27 26 28 28 25 23 23 25 27 28 27
34 36 37 39 39 39 39 38 39 38 37 36 34 34 34 33 34 34 32 30 28 31 31 31 32 29 26 25 25 27 27 28
33 34 35 36 37 38 39 39 41 41 41 39 38 35 34 35 34 33 34 35 37 37 37 37 35 33 29 27 27 29 32 30
35 38 39 38 38 38 38 39 41 44 43 40 36 36 38 36 36 35 34 32 42 43 41 39 36 36 35 31 31 29 30 34
40 42 42 43 42 41 41 41 42 44 43 44 42 39 36 39 41 40 38 37 36 42 41 45 43 40 38 39 36 34 32 31
33 38 40 42 41 42 43 44 44 46 46 46 46 43 40 37 47 45 44 43 41 43 42 43 40 42 39 38 41 40 36 34
24 27 31 34 39 42 44 46 46 48 49 50 49 49 46 43 45 53 50 51 49 46 49 45 43 43 39 40 45 48 46 42
21 23 27 29 29 32 35 40 47 52 52 55 55 53 52 50 47 49 57 58 56 53 50 54 49 47 46 50 46 55 54 50
27 28 30 30 31 33 34 37 41 45 52 60 62 59 57 56 54 52 54 59 62 57 57 56 56 51 49 52 48 52 57 56
34 33 33 33 30 31 34 36 40 46 52 53 59 64 66 65 62 61 59 57 64 64 60 61 59 55 52 54 49 43 43 53
28 29 26 24 25 27 31 35 37 44 55 60 62 64 64 67 69 67 66 65 64 67 68 63 60 59 54 56 56 47 42 47
26 24 24 21 25 29 33 32 32 33 47 61 66 67 69 69 69 70 72 72 69 68 71 71 68 62 61 58 57 49 47 42
18 19 22 25 30 35 35 35 35 34 31 35 44 58 70 74 75 71 72 75 77 73 70 72 72 69 67 65 60 56 53 50
15 19 24 26 29 32 33 36 36 36 33 34 38 43 46 54 63 73 77 76 80 81 77 72 74 71 68 71 67 64 61 57
7 10 12 12 15 15 16 21 27 31 32 34 39 42 43 45 48 54 64 76 81 83 83 77 75 76 73 74 73 71 66 57
16 17 19 18 17 17 20 21 21 20 23 27 31 35 39 43 45 48 47 54 69 83 86 85 79 80 81 78 80 77 66 74
26 25 26 26 27 27 25 23 23 22 23 27 28 30 33 37 41 42 46 48 52 60 85 89 89 84 84 86 82 83 82 69
Wind_Direction
217 220 216 216 215 219 224 229 228 228 231 226 217 212 204 193 186 189 191 202 196 199 204 194 194 196 195 199 204 202 201 194
214 217 218 217 217 219 224 229 229 229 231 232 226 208 207 209 206 199 198 186 200 198 200 202 198 200 206 204 198 202 207 205
214 215 216 217 218 219 223 227 231 234 232 234 230 228 218 217 219 214 200 200 200 198 196 202 201 199 198 209 213 203 204 213
221 219 222 220 220 223 223 228 231 233 237 236 235 235 235 230 223 223 219 207 216 219 206 206 211 206 206 206 202 211 206 209
224 226 229 231 229 227 229 232 235 237 239 238 242 238 237 238 240 233 227 222 215 223 218 217 213 214 204 208 206 203 213 211
222 227 228 231 233 234 233 234 237 241 244 241 238 239 239 235 238 238 236 221 217 219 225 223 220 216 214 215 218 220 217 217
225 229 231 231 234 236 237 238 238 241 244 244 240 235 233 234 234 235 235 228 227 229 232 229 223 221 220 213 224 220 222 221
228 232 237 238 239 239 242 243 242 242 243 246 245 238 234 229 223 227 229 233 227 230 233 232 226 226 228 236 222 229 229 227
217 222 230 236 241 243 243 244 245 247 246 247 248 246 240 232 226 222 225 229 231 230 231 232 231 229 225 240 229 228 228 229
230 236 237 236 235 239 243 244 245 247 248 249 248 248 246 241 233 226 225 228 232 233 232 233 231 232 234 234 230 225 226 229
244 245 251 255 255 250 248 248 247 248 247 248 251 248 249 247 240 232 228 226 227 230 232 235 235 231 234 238 240 224 225 231
251 251 254 257 259 259 258 260 259 252 246 244 247 248 248 248 245 241 234 229 228 228 228 232 234 235 235 240 244 229 237 233
250 251 247 240 242 249 261 263 274 268 253 247 243 244 245 246 246 243 242 236 231 229 229 228 231 235 234 239 238 233 239 241
235 234 239 249 261 270 275 273 272 283 263 248 245 244 243 244 243 244 242 240 236 231 229 231 234 233 233 235 241 235 237 235
239 243 255 266 276 278 277 276 274 273 273 267 258 249 245 245 244 241 240 240 239 234 231 229 229 234 233 232 237 235 228 231
258 265 275 280 283 284 280 276 272 272 267 267 264 262 259 254 251 248 242 238 238 238 232 230 228 228 230 231 230 237 236 230
272 267 270 283 294 304 301 281 272 272 274 272 268 266 264 259 258 256 251 244 238 236 235 230 229 227 226 229 231 233 230 232
272 274 277 280 287 291 291 290 294 292 290 282 276 273 270 264 257 254 253 251 245 237 235 234 228 227 227 225 230 231 227 230
274 272 278 279 281 281 285 292 294 298 298 294 300 302 287 266 260 253 247 246 244 244 236 233 232 227 228 226 225 230 230 229
Height
5805 5810 5817 5822 5827 5832 5835 5839 5845 5851 5855 5861 5865 5869 5873 5877 5880 5881 5885 5886 5888 5892 5896 5899 5901 5905 5909 5914 5919 5920 5922 5925
5798 5804 5809 5814 5821 5825 5829 5832 5838 5842 5848 5852 5859 5866 5870 5872 5876 5880 5883 5885 5886 5889 5892 5896 5899 5901 5905 5909 5912 5915 5919 5922
5791 5795 5801 5808 5812 5818 5824 5828 5831 5836 5840 5846 5853 5859 5864 5868 5871 5876 5880 5884 5883 5884 5887 5889 5892 5897 5899 5903 5908 5909 5913 5918
5784 5788 5793 5799 5804 5810 5816 5823 5826 5829 5834 5839 5846 5852 5857 5861 5865 5870 5874 5877 5880 5882 5883 5885 5889 5893 5896 5898 5901 5906 5907 5912
5777 5784 5787 5791 5797 5804 5809 5815 5818 5823 5828 5835 5840 5846 5851 5855 5859 5863 5867 5871 5874 5877 5880 5882 5885 5889 5891 5894 5895 5898 5904 5906
5772 5776 5780 5784 5789 5795 5802 5808 5811 5814 5819 5825 5833 5838 5844 5848 5852 5856 5861 5863 5867 5872 5876 5879 5882 5884 5886 5890 5892 5894 5897 5901
5764 5767 5771 5777 5782 5786 5792 5797 5803 5807 5810 5815 5822 5828 5834 5839 5844 5848 5852 5857 5861 5865 5869 5872 5876 5878 5879 5883 5887 5890 5893 5896
5760 5762 5764 5769 5775 5780 5784 5789 5793 5797 5801 5803 5809 5817 5823 5828 5835 5839 5844 5847 5852 5857 5861 5864 5867 5871 5874 5876 5880 5884 5889 5893
5754 5756 5758 5762 5766 5770 5776 5779 5784 5787 5792 5794 5798 5803 5811 5817 5823 5829 5834 5838 5843 5848 5851 5855 5859 5862 5866 5870 5873 5877 5880 5884
5747 5749 5750 5755 5759 5761 5765 5768 5772 5775 5779 5780 5785 5790 5796 5803 5810 5815 5820 5825 5830 5836 5841 5845 5850 5855 5858 5859 5863 5866 5871 5876
5739 5742 5744 5745 5749 5753 5755 5759 5762 5763 5766 5768 5770 5776 5783 5788 5794 5801 5806 5810 5815 5823 5829 5833 5838 5844 5847 5848 5852 5857 5861 5866
5730 5733 5734 5736 5737 5739 5742 5749 5749 5749 5751 5754 5754 5758 5765 5770 5777 5783 5790 5796 5801 5806 5813 5819 5824 5831 5835 5838 5841 5846 5848 5853
5719 5721 5724 5726 5728 5729 5733 5738 5733 5731 5733 5735 5738 5742 5746 5751 5757 5764 5770 5778 5784 5790 5797 5803 5810 5815 5822 5826 5830 5833 5839 5843
5710 5712 5715 5716 5718 5721 5721 5721 5721 5718 5713 5714 5719 5725 5726 5730 5737 5743 5751 5757 5764 5773 5780 5787 5794 5800 5807 5813 5818 5824 5828 5831
5706 5706 5706 5707 5708 5708 5708 5707 5707 5706 5702 5699 5699 5702 5706 5710 5714 5721 5729 5737 5743 5752 5762 5770 5776 5784 5790 5797 5804 5811 5816 5821
5699 5699 5700 5699 5698 5696 5695 5695 5695 5693 5691 5688 5687 5685 5687 5690 5691 5695 5704 5713 5720 5729 5741 5752 5758 5765 5774 5779 5788 5795 5804 5808
5694 5694 5694 5694 5692 5690 5687 5686 5685 5683 5680 5677 5674 5673 5671 5672 5673 5675 5679 5686 5696 5707 5717 5731 5739 5747 5753 5761 5769 5776 5786 5792
5692 5690 5689 5688 5687 5685 5683 5681 5678 5675 5671 5667 5663 5659 5657 5655 5655 5656 5660 5664 5671 5683 5694 5705 5717 5726 5734 5741 5749 5758 5768 5775
5686 5685 5683 5681 5680 5678 5676 5673 5670 5666 5662 5658 5653 5648 5642 5640 5639 5640 5642 5646 5651 5657 5668 5678 5689 5704 5713 5720 5729 5738 5747 5756